Location: Poughquag
(41.6090°N, 73.6820°W)
Time: 03:39:25
(UTC-04:00)

Vanguard 2 - Pass Details

Date: 04 June 2020
Orbit: 552 x 2938 km, 32.9° (Epoch: 06 July)

Event Time Altitude Azimuth Distance (km) Brightness Sun altitude
Rises 14:42:21 0° 187° (S) 6,752 12.6 60.3°
Reaches altitude 10° 14:50:17 10° 167° (SSE) 5,734 12.2 59.0°
Maximum altitude 14:57:58 15° 141° (SE) 5,153 11.8 57.7°
Drops below altitude 10° 15:05:00 10° 114° (ESE) 5,201 11.6 56.5°
Sets 15:11:18 0° 93° (E) 5,775 11.7 55.4°
